Home > Weather > Haugesund > Past weeks

Flag for Norway Past Weather in Haugesund, Norway — Yesterday and Last 2 Weeks

Now
59 °F

Fog.


Feels Like: 60 °F
Forecast: 56 / 62 °F
Wind: 3 mph from North

Location: Karmoy

Current Time: Aug 26, 2016 at 1:59:08 AM

Latest Report: Aug 26, 2016 at 1:20 AM


Visibility: 2 mi

Pressure: 29.95 "Hg

Humidity: 100%

Dew Point: 59 °F

Location of HaugesundLocation

Past Weather in Haugesund — Graph

°F

Haugesund Temperature Yesterday

Maximum temperature yesterday: 61 °F (at 12:20 AM)
Minimum temperature yesterday: 59 °F (at 2:20 AM)
Average temperature yesterday: 60 °F

High & Low Weather Summary for the Past Weeks

 TemperatureHumidityPressure
High70 °F (Aug 21, 12:50 PM)100% (Aug 12, 6:50 AM)30.27 "Hg (Aug 12, 6:50 AM)
Low43 °F (Aug 11, 5:20 AM)48% (Aug 11, 3:20 PM)29.68 "Hg (Aug 12, 5:50 PM)
Average58 °F88%29.99 "Hg
* Reported Aug 11 12:20 AM — Aug 26 12:20 AM, Haugesund, Weather by CustomWeather, © 2016

Note: Actual official high and low records may vary slightly from our data, if they occured in-between our weather recording intervals... More about our weather records

Advertising

Haugesund Weather History for the Previous 24 Hours

Scroll right to see more
 ConditionsComfort  
Time TempWeatherWind HumidityBarometerVisibility
12:20 AM
Fri, Aug 26
59 °FPassing clouds.6 mph94%29.98 "Hg6 mi
11:50 PM
Thu, Aug 25
59 °FLow clouds.8 mph94%29.98 "HgN/A
11:20 PM59 °FLow clouds.10 mph94%29.98 "HgN/A
10:50 PM59 °FPassing clouds.8 mph100%30.01 "Hg6 mi
10:20 PM59 °FPassing clouds.9 mph94%30.01 "HgN/A
9:50 PM59 °FPartly sunny.7 mph94%30.01 "HgN/A
9:20 PM59 °FPartly sunny.7 mph94%30.01 "HgN/A
8:50 PM59 °FPartly sunny.10 mph94%30.01 "HgN/A
8:20 PM59 °FBroken clouds.10 mph94%30.01 "HgN/A
7:50 PM59 °FScattered clouds.10 mph94%30.01 "HgN/A
7:20 PM61 °FScattered clouds.9 mph88%30.04 "HgN/A
6:50 PM61 °FPartly sunny.10 mph88%30.04 "HgN/A
6:20 PM61 °FPartly sunny.10 mph88%30.04 "HgN/A
5:50 PM61 °FBroken clouds.12 mph88%30.04 "HgN/A
5:20 PM61 °FBroken clouds.10 mph88%30.07 "HgN/A
4:50 PM61 °FPartly sunny.9 mph88%30.07 "HgN/A
4:20 PM61 °FPartly sunny.9 mph88%30.07 "Hg6 mi
3:50 PM61 °FDrizzle. Partly sunny.9 mph94%30.04 "Hg6 mi
3:20 PM61 °FDrizzle. Partly sunny.12 mph94%30.04 "HgN/A
2:50 PM59 °FLight rain. Partly sunny.9 mph94%30.07 "HgN/A
2:20 PM59 °FLight rain. Partly sunny.12 mph94%30.07 "HgN/A
1:50 PM61 °FLight rain. Partly sunny.13 mph88%30.07 "HgN/A
1:20 PM61 °FPartly sunny.9 mph94%30.09 "HgN/A
12:50 PM61 °FPartly sunny.9 mph94%30.09 "HgN/A
12:20 PM61 °FPartly sunny.9 mph94%30.07 "HgN/A
11:50 AM61 °FFog.9 mph94%30.07 "HgN/A
11:20 AM61 °FFog.10 mph94%30.07 "HgN/A
10:50 AM59 °FFog.12 mph100%30.07 "HgN/A
10:20 AM61 °FFog.10 mph94%30.07 "HgN/A
9:50 AM59 °FFog.9 mph100%30.07 "HgN/A
9:20 AM59 °FFog.9 mph100%30.07 "Hg6 mi
8:50 AM59 °FFog.8 mph100%30.07 "Hg1 mi
8:20 AM59 °FFog.7 mph100%30.07 "Hg0 mi
7:20 AM59 °FFog.9 mph100%30.07 "HgN/A
6:50 AM59 °FFog.10 mph100%30.07 "HgN/A
6:20 AM59 °FFog.10 mph100%30.09 "Hg1 mi
5:50 AM59 °FFog.9 mph100%30.09 "Hg0 mi
5:20 AM59 °FFog.10 mph100%30.09 "Hg1 mi
4:50 AM59 °FFog.12 mph100%30.09 "Hg1 mi
4:20 AM59 °FFog.12 mph100%30.09 "Hg0 mi
3:50 AM59 °FFog.12 mph100%30.09 "Hg1 mi
3:20 AM59 °FLow clouds.12 mph100%30.09 "Hg1 mi
2:50 AM59 °FFog.13 mph100%30.09 "Hg0 mi
2:20 AM59 °FFog.14 mph100%30.09 "Hg1 mi
1:50 AM61 °FFog.9 mph94%30.09 "Hg0 mi
1:20 AM61 °FFog.5 mph94%30.09 "Hg1 mi
Weather by CustomWeather, © 2016

See weather overviewHow to use our weather pages